Location: Marcé
(47.5801°N, 0.3280°W)
Time: 09:16:30
(UTC+01:00)

Vanguard 3 - Pass Details

Date: 07 December 2021
Orbit: 508 x 3260 km, 33.3° (Epoch: 24 January)

Event Time Altitude Azimuth Distance (km) Brightness Sun altitude
Rises 03:39:58 0° 228° (SW) 6,644 - -48.4°
Reaches altitude 10° 03:44:27 10° 222° (SW) 5,867 - -47.7°
Exits shadow 03:57:52 40° 181° (S) 4,215 10.4 -45.6°
Maximum altitude 04:01:40 43° 160° (SSE) 4,080 10.5 -45.0°
Drops below altitude 10° 04:17:51 10° 97° (E) 5,562 11.9 -42.3°
Sets 04:21:55 0° 91° (E) 6,288 12.5 -41.7°
